VAT202 RCTP-VHHH

Flight info

Callsign VAT202
Flight time 1h 14m
Altitude 34000
Route CHALI1A CHALI T3 MKG A1 ELATO V522 ABBEY
Aircraft A346/H-SDE2E3FGHIJ3J4J5M1RWXY/LB1D1

Departure

Time 2026-05-07 13:41
Airport Taiwan Taoyuan International Airport (RCTP)

Arrival

Time 2026-05-07 14:56
Airport Hong Kong International Airport (VHHH)
Time Latitude Longitude Altitude Speed Heading
2026-05-07 12:53 25.07683 121.23556 109 ft 0 kts 319°
2026-05-07 13:28 25.07679 121.23561 109 ft 3 kts 319°
2026-05-07 13:28 25.07663 121.23575 108 ft 3 kts 319°
2026-05-07 13:29 25.07648 121.23590 108 ft 3 kts 319°
2026-05-07 13:29 25.07633 121.23605 109 ft 2 kts 319°
2026-05-07 13:29 25.07621 121.23617 106 ft 3 kts 306°
2026-05-07 13:29 25.07614 121.23631 106 ft 3 kts 280°
2026-05-07 13:30 25.07614 121.23646 106 ft 3 kts 252°
2026-05-07 13:30 25.07622 121.23662 107 ft 3 kts 230°
2026-05-07 13:30 25.07635 121.23679 106 ft 3 kts 229°
2026-05-07 13:30 25.07648 121.23696 106 ft 3 kts 229°
2026-05-07 13:31 25.07661 121.23713 106 ft 3 kts 229°
2026-05-07 13:31 25.07674 121.23729 107 ft 3 kts 229°
2026-05-07 13:31 25.07686 121.23745 108 ft 1 kts 229°
2026-05-07 13:34 25.07686 121.23744 108 ft 1 kts 229°
2026-05-07 13:34 25.07656 121.23705 107 ft 5 kts 230°
2026-05-07 13:34 25.07635 121.23679 106 ft 4 kts 230°
2026-05-07 13:35 25.07608 121.23643 106 ft 8 kts 230°
2026-05-07 13:35 25.07565 121.23586 110 ft 12 kts 230°
2026-05-07 13:35 25.07507 121.23509 111 ft 14 kts 230°
2026-05-07 13:35 25.07438 121.23416 110 ft 17 kts 231°
2026-05-07 13:36 25.07351 121.23307 110 ft 20 kts 225°
2026-05-07 13:36 25.07247 121.23193 111 ft 16 kts 219°
2026-05-07 13:36 25.07167 121.23220 111 ft 13 kts 141°
2026-05-07 13:36 25.07087 121.23273 109 ft 13 kts 186°
2026-05-07 13:37 25.07006 121.23207 110 ft 16 kts 230°
2026-05-07 13:37 25.06926 121.23099 110 ft 20 kts 231°
2026-05-07 13:37 25.06834 121.22974 111 ft 22 kts 231°
2026-05-07 13:37 25.06733 121.22832 110 ft 25 kts 232°
2026-05-07 13:38 25.06627 121.22690 109 ft 21 kts 223°
2026-05-07 13:38 25.06518 121.22577 110 ft 23 kts 224°
2026-05-07 13:38 25.06406 121.22445 111 ft 24 kts 230°
2026-05-07 13:38 25.06294 121.22300 109 ft 25 kts 227°
2026-05-07 13:39 25.06183 121.22277 109 ft 19 kts 143°
2026-05-07 13:39 25.06100 121.22367 106 ft 11 kts 90°
2026-05-07 13:39 25.06152 121.22442 106 ft 10 kts 50°
2026-05-07 13:39 25.06155 121.22446 106 ft 0 kts 50°
2026-05-07 13:40 25.06156 121.22446 106 ft 0 kts 50°
2026-05-07 13:40 25.06191 121.22492 106 ft 32 kts 49°
2026-05-07 13:41 25.06504 121.22887 104 ft 102 kts 51°
2026-05-07 13:41 25.07104 121.23647 105 ft 159 kts 49°
2026-05-07 13:41 25.07921 121.24697 246 ft 194 kts 49°
2026-05-07 13:41 25.08823 121.25837 910 ft 198 kts 49°
2026-05-07 13:42 25.09752 121.26958 1681 ft 196 kts 50°
2026-05-07 13:42 25.10676 121.28065 2224 ft 205 kts 36°
2026-05-07 13:42 25.12075 121.28494 2581 ft 221 kts 351°
2026-05-07 13:42 25.13458 121.27714 2925 ft 235 kts 309°
2026-05-07 13:43 25.14107 121.26029 3277 ft 250 kts 270°
2026-05-07 13:43 25.13673 121.24144 3792 ft 261 kts 238°
2026-05-07 13:43 25.12608 121.22521 4680 ft 261 kts 233°
2026-05-07 13:43 25.11509 121.20912 5564 ft 262 kts 234°
2026-05-07 13:44 25.10456 121.19264 6482 ft 263 kts 236°
2026-05-07 13:44 25.09438 121.17575 7330 ft 265 kts 237°
2026-05-07 13:44 25.08439 121.15846 8155 ft 269 kts 238°
2026-05-07 13:44 25.07443 121.14076 8960 ft 274 kts 238°
2026-05-07 13:45 25.06438 121.12262 9799 ft 278 kts 239°
2026-05-07 13:45 25.05426 121.10417 10488 ft 285 kts 239°
2026-05-07 13:45 25.04375 121.08487 10933 ft 302 kts 240°
2026-05-07 13:45 25.03262 121.06432 11304 ft 320 kts 240°
2026-05-07 13:46 25.02091 121.04263 11668 ft 338 kts 240°
2026-05-07 13:46 25.00854 121.01971 12007 ft 356 kts 240°
2026-05-07 13:46 24.99556 120.99569 12370 ft 372 kts 240°
2026-05-07 13:46 24.98216 120.97089 13033 ft 378 kts 240°
2026-05-07 13:47 24.96865 120.94593 13841 ft 381 kts 241°
2026-05-07 13:47 24.95501 120.92072 14511 ft 384 kts 241°
2026-05-07 13:47 24.94125 120.89527 15159 ft 388 kts 241°
2026-05-07 13:47 24.92737 120.86962 15805 ft 392 kts 240°
2026-05-07 13:48 24.91351 120.84403 16445 ft 396 kts 240°
2026-05-07 13:48 24.89931 120.81782 17079 ft 400 kts 240°
2026-05-07 13:48 24.88497 120.79139 17694 ft 403 kts 240°
2026-05-07 13:48 24.87047 120.76467 18294 ft 407 kts 240°
2026-05-07 13:49 24.85583 120.73772 18795 ft 411 kts 240°
2026-05-07 13:49 24.84107 120.71056 19325 ft 414 kts 240°
2026-05-07 13:49 24.82620 120.68321 19854 ft 417 kts 240°
2026-05-07 13:49 24.81121 120.65567 20379 ft 420 kts 240°
2026-05-07 13:50 24.80119 120.63728 20722 ft 422 kts 240°
2026-05-07 13:50 24.78599 120.60939 21223 ft 425 kts 240°
2026-05-07 13:50 24.76549 120.57178 21899 ft 430 kts 240°
2026-05-07 13:50 24.75526 120.55306 22230 ft 432 kts 239°
2026-05-07 13:51 24.73115 120.51781 22857 ft 438 kts 229°
2026-05-07 13:51 24.71664 120.50160 23181 ft 441 kts 225°
2026-05-07 13:51 24.69278 120.48002 23638 ft 446 kts 218°
2026-05-07 13:51 24.66728 120.46036 24015 ft 449 kts 217°
2026-05-07 13:52 24.64148 120.44093 24415 ft 451 kts 216°
2026-05-07 13:52 24.61581 120.42165 24821 ft 453 kts 216°
2026-05-07 13:52 24.58960 120.40194 25230 ft 456 kts 217°
2026-05-07 13:52 24.56337 120.38217 25631 ft 458 kts 217°
2026-05-07 13:53 24.53691 120.36218 26016 ft 461 kts 217°
2026-05-07 13:53 24.51033 120.34211 26414 ft 464 kts 217°
2026-05-07 13:53 24.48368 120.32197 26821 ft 466 kts 217°
2026-05-07 13:53 24.45686 120.30172 27208 ft 469 kts 217°
2026-05-07 13:54 24.43001 120.28111 27588 ft 471 kts 217°
2026-05-07 13:54 24.40357 120.26053 27981 ft 473 kts 218°
2026-05-07 13:54 24.37634 120.23928 28428 ft 474 kts 218°
2026-05-07 13:54 24.34984 120.21864 29012 ft 472 kts 218°
2026-05-07 13:55 24.32313 120.19788 29647 ft 469 kts 218°
2026-05-07 13:55 24.29650 120.17720 30215 ft 467 kts 218°
2026-05-07 13:55 24.26992 120.15659 30676 ft 467 kts 218°
2026-05-07 13:55 24.24343 120.13608 31108 ft 467 kts 218°
2026-05-07 13:56 24.21684 120.11548 31520 ft 468 kts 218°
2026-05-07 13:56 24.19025 120.09491 31931 ft 468 kts 218°
2026-05-07 13:56 24.16358 120.07427 32342 ft 469 kts 218°
2026-05-07 13:56 24.13686 120.05360 32716 ft 471 kts 218°
2026-05-07 13:57 24.10998 120.03282 33053 ft 473 kts 219°
2026-05-07 13:57 24.08295 120.01192 33381 ft 476 kts 219°
2026-05-07 13:57 24.05580 119.99096 33727 ft 478 kts 219°
2026-05-07 13:57 24.02846 119.96986 33960 ft 481 kts 219°
2026-05-07 13:58 24.00143 119.94901 33961 ft 481 kts 219°
2026-05-07 13:58 23.94655 119.90673 33954 ft 483 kts 219°
2026-05-07 13:59 23.89153 119.86439 33963 ft 483 kts 219°
2026-05-07 13:59 23.83648 119.82208 33967 ft 483 kts 219°
2026-05-07 14:00 23.78144 119.77982 33969 ft 483 kts 219°
2026-05-07 14:00 23.72672 119.73787 33962 ft 483 kts 219°
2026-05-07 14:01 23.67187 119.69522 33972 ft 483 kts 221°
2026-05-07 14:01 23.62097 119.64763 33972 ft 479 kts 228°
2026-05-07 14:02 23.57612 119.59482 33971 ft 475 kts 234°
2026-05-07 14:02 23.53712 119.53683 33972 ft 472 kts 240°
2026-05-07 14:03 23.50196 119.47627 33963 ft 472 kts 241°
2026-05-07 14:03 23.46681 119.41558 33970 ft 473 kts 240°
2026-05-07 14:04 23.43160 119.35494 33970 ft 473 kts 240°
2026-05-07 14:04 23.39631 119.29426 33969 ft 473 kts 240°
2026-05-07 14:05 23.36126 119.23406 33967 ft 473 kts 240°
2026-05-07 14:05 23.32592 119.17343 33966 ft 473 kts 240°
2026-05-07 14:06 23.29057 119.11288 33959 ft 475 kts 240°
2026-05-07 14:06 23.25506 119.05214 33960 ft 475 kts 240°
2026-05-07 14:07 23.21947 118.99134 33964 ft 475 kts 240°
2026-05-07 14:07 23.18391 118.93063 33960 ft 476 kts 240°
2026-05-07 14:08 23.14825 118.86985 33961 ft 476 kts 240°
2026-05-07 14:08 23.11261 118.80919 33959 ft 476 kts 240°
2026-05-07 14:09 23.07691 118.74845 33958 ft 477 kts 239°
2026-05-07 14:09 23.04124 118.68787 33961 ft 478 kts 239°
2026-05-07 14:10 23.00531 118.62700 33953 ft 478 kts 240°
2026-05-07 14:10 22.96939 118.56610 33960 ft 478 kts 240°
2026-05-07 14:11 22.93336 118.50521 33960 ft 479 kts 240°
2026-05-07 14:11 22.89723 118.44448 33957 ft 479 kts 240°
2026-05-07 14:12 22.86128 118.38407 33956 ft 479 kts 239°
2026-05-07 14:12 22.82495 118.32329 33956 ft 480 kts 240°
2026-05-07 14:13 22.78869 118.26246 33960 ft 480 kts 240°
2026-05-07 14:13 22.75233 118.20157 33961 ft 480 kts 240°
2026-05-07 14:14 22.71597 118.14079 33963 ft 480 kts 240°
2026-05-07 14:14 22.67962 118.08012 33960 ft 480 kts 240°
2026-05-07 14:15 22.64324 118.01952 33966 ft 478 kts 240°
2026-05-07 14:15 22.60725 117.95958 33962 ft 478 kts 240°
2026-05-07 14:16 22.57120 117.89901 33965 ft 477 kts 240°
2026-05-07 14:16 22.53533 117.83855 33964 ft 477 kts 240°
2026-05-07 14:17 22.49938 117.77809 33962 ft 477 kts 240°
2026-05-07 14:17 22.46337 117.71765 33967 ft 477 kts 240°
2026-05-07 14:18 22.42719 117.65695 33965 ft 481 kts 240°
2026-05-07 14:18 22.39091 117.59594 33954 ft 481 kts 242°
2026-05-07 14:19 22.36091 117.53159 33967 ft 477 kts 251°
2026-05-07 14:19 22.34119 117.46385 33971 ft 474 kts 260°
2026-05-07 14:20 22.33177 117.39355 33962 ft 470 kts 269°
2026-05-07 14:20 22.32993 117.32287 33964 ft 470 kts 271°
2026-05-07 14:21 22.32878 117.25218 33956 ft 470 kts 271°
2026-05-07 14:21 22.32754 117.18147 33969 ft 470 kts 271°
2026-05-07 14:22 22.32625 117.11103 33959 ft 471 kts 270°
2026-05-07 14:22 22.32486 117.04001 33966 ft 471 kts 270°
2026-05-07 14:23 22.32343 116.96915 33963 ft 471 kts 270°
2026-05-07 14:23 22.32197 116.89817 33963 ft 472 kts 270°
2026-05-07 14:24 22.32052 116.82762 33970 ft 471 kts 270°
2026-05-07 14:24 22.31900 116.75692 33960 ft 469 kts 270°
2026-05-07 14:25 22.31745 116.68628 33961 ft 469 kts 270°
2026-05-07 14:25 22.31588 116.61571 33969 ft 469 kts 270°
2026-05-07 14:26 22.31427 116.54518 33970 ft 469 kts 270°
2026-05-07 14:26 22.31265 116.47510 33961 ft 468 kts 270°
2026-05-07 14:27 22.31100 116.40468 33754 ft 469 kts 270°
2026-05-07 14:27 22.31016 116.36930 33359 ft 466 kts 270°
2026-05-07 14:27 22.30932 116.33451 32980 ft 462 kts 270°
2026-05-07 14:27 22.30848 116.29981 32607 ft 459 kts 270°
2026-05-07 14:28 22.30763 116.26528 32241 ft 459 kts 270°
2026-05-07 14:28 22.30678 116.23069 31869 ft 461 kts 270°
2026-05-07 14:28 22.30593 116.19639 31516 ft 462 kts 270°
2026-05-07 14:28 22.30506 116.16159 31163 ft 463 kts 270°
2026-05-07 14:29 22.30417 116.12675 30813 ft 464 kts 270°
2026-05-07 14:29 22.30328 116.09168 30467 ft 465 kts 270°
2026-05-07 14:29 22.30238 116.05670 30127 ft 466 kts 270°
2026-05-07 14:29 22.30146 116.02151 29744 ft 467 kts 270°
2026-05-07 14:30 22.30055 115.98643 29347 ft 468 kts 270°
2026-05-07 14:30 22.29962 115.95120 28944 ft 469 kts 270°
2026-05-07 14:30 22.29869 115.91581 28567 ft 471 kts 270°
2026-05-07 14:30 22.29773 115.88034 28195 ft 471 kts 270°
2026-05-07 14:31 22.29677 115.84528 27909 ft 472 kts 270°
2026-05-07 14:31 22.29581 115.80979 27430 ft 469 kts 270°
2026-05-07 14:31 22.29488 115.77472 27086 ft 465 kts 270°
2026-05-07 14:31 22.29396 115.73981 26652 ft 463 kts 269°
2026-05-07 14:32 22.29304 115.70512 26123 ft 459 kts 269°
2026-05-07 14:32 22.29212 115.67083 25717 ft 453 kts 269°
2026-05-07 14:32 22.29121 115.63663 25739 ft 455 kts 269°
2026-05-07 14:32 22.29028 115.60235 25758 ft 456 kts 269°
2026-05-07 14:33 22.28935 115.56840 25776 ft 456 kts 269°
2026-05-07 14:33 22.28840 115.53406 25801 ft 457 kts 269°
2026-05-07 14:33 22.28744 115.49977 25826 ft 457 kts 269°
2026-05-07 14:33 22.28647 115.46538 25848 ft 457 kts 269°
2026-05-07 14:34 22.28549 115.43094 25863 ft 457 kts 269°
2026-05-07 14:34 22.28450 115.39651 25897 ft 457 kts 269°
2026-05-07 14:34 22.28351 115.36215 25917 ft 458 kts 269°
2026-05-07 14:34 22.28251 115.32773 25937 ft 458 kts 269°
2026-05-07 14:35 22.28152 115.29335 25934 ft 458 kts 269°
2026-05-07 14:35 22.28049 115.25892 25576 ft 458 kts 269°
2026-05-07 14:35 22.27944 115.22496 24939 ft 457 kts 269°
2026-05-07 14:35 22.27836 115.19069 24397 ft 453 kts 269°
2026-05-07 14:36 22.27729 115.15680 23898 ft 448 kts 269°
2026-05-07 14:36 22.27623 115.12331 23411 ft 443 kts 269°
2026-05-07 14:36 22.27518 115.09017 22884 ft 438 kts 269°
2026-05-07 14:36 22.27414 115.05745 22416 ft 432 kts 269°
2026-05-07 14:37 22.27345 115.03591 22113 ft 428 kts 269°
2026-05-07 14:37 22.27139 114.97252 21226 ft 417 kts 269°
2026-05-07 14:37 22.27038 114.94123 20795 ft 412 kts 268°
2026-05-07 14:38 22.26937 114.91039 20360 ft 408 kts 268°
2026-05-07 14:38 22.26839 114.88016 19918 ft 405 kts 268°
2026-05-07 14:38 22.26741 114.84985 19486 ft 402 kts 268°
2026-05-07 14:38 22.26641 114.81979 19046 ft 399 kts 268°
2026-05-07 14:39 22.26542 114.78992 18606 ft 396 kts 268°
2026-05-07 14:39 22.26442 114.76018 18161 ft 394 kts 268°
2026-05-07 14:39 22.26343 114.73064 17663 ft 391 kts 268°
2026-05-07 14:39 22.26243 114.70132 17200 ft 388 kts 268°
2026-05-07 14:40 22.26144 114.67229 16756 ft 385 kts 268°
2026-05-07 14:40 22.26045 114.64348 16303 ft 383 kts 268°
2026-05-07 14:40 22.25946 114.61476 15856 ft 380 kts 268°
2026-05-07 14:40 22.25847 114.58621 15415 ft 378 kts 268°
2026-05-07 14:41 22.25749 114.55817 14975 ft 377 kts 268°
2026-05-07 14:41 22.25650 114.52993 14534 ft 375 kts 268°
2026-05-07 14:41 22.25550 114.50177 14099 ft 373 kts 267°
2026-05-07 14:41 22.25451 114.47377 13642 ft 372 kts 267°
2026-05-07 14:42 22.25351 114.44588 13166 ft 370 kts 267°
2026-05-07 14:42 22.25251 114.41809 12729 ft 367 kts 267°
2026-05-07 14:42 22.25151 114.39048 12268 ft 364 kts 267°
2026-05-07 14:42 22.25052 114.36320 11861 ft 361 kts 267°
2026-05-07 14:43 22.24980 114.33612 11437 ft 358 kts 271°
2026-05-07 14:43 22.25518 114.31005 11036 ft 356 kts 292°
2026-05-07 14:43 22.26368 114.29437 10917 ft 349 kts 306°
2026-05-07 14:43 22.28077 114.27700 10751 ft 340 kts 325°
2026-05-07 14:44 22.30147 114.26547 10612 ft 330 kts 333°
2026-05-07 14:44 22.32202 114.25550 10479 ft 319 kts 334°
2026-05-07 14:44 22.34194 114.24589 10352 ft 308 kts 334°
2026-05-07 14:44 22.36112 114.23652 10246 ft 296 kts 333°
2026-05-07 14:45 22.37952 114.22742 10151 ft 285 kts 333°
2026-05-07 14:45 22.39732 114.21855 10061 ft 278 kts 333°
2026-05-07 14:45 22.41477 114.20981 9923 ft 277 kts 333°
2026-05-07 14:45 22.43203 114.20114 9568 ft 278 kts 333°
2026-05-07 14:46 22.44954 114.19235 9247 ft 277 kts 334°
2026-05-07 14:46 22.46621 114.18135 8829 ft 276 kts 312°
2026-05-07 14:46 22.47615 114.16396 8529 ft 270 kts 286°
2026-05-07 14:46 22.47791 114.14400 8185 ft 268 kts 261°
2026-05-07 14:47 22.47221 114.12487 7903 ft 266 kts 247°
2026-05-07 14:47 22.46485 114.10639 7641 ft 264 kts 247°
2026-05-07 14:47 22.45760 114.08818 7357 ft 264 kts 247°
2026-05-07 14:47 22.45043 114.06993 7069 ft 263 kts 247°
2026-05-07 14:48 22.44334 114.05162 6791 ft 262 kts 247°
2026-05-07 14:48 22.43637 114.03358 6503 ft 262 kts 247°
2026-05-07 14:48 22.42939 114.01543 6303 ft 258 kts 247°
2026-05-07 14:48 22.42269 113.99796 6174 ft 249 kts 247°
2026-05-07 14:49 22.41609 113.98072 5906 ft 246 kts 247°
2026-05-07 14:49 22.40961 113.96378 5654 ft 242 kts 247°
2026-05-07 14:49 22.40326 113.94717 5275 ft 238 kts 247°
2026-05-07 14:49 22.39694 113.93069 4881 ft 237 kts 247°
2026-05-07 14:50 22.39060 113.91420 4479 ft 237 kts 247°
2026-05-07 14:50 22.38426 113.89774 4167 ft 236 kts 246°
2026-05-07 14:50 22.37805 113.88167 3884 ft 232 kts 246°
2026-05-07 14:50 22.37190 113.86574 3571 ft 226 kts 246°
2026-05-07 14:51 22.36591 113.85025 3280 ft 219 kts 244°
2026-05-07 14:51 22.35802 113.83659 3009 ft 209 kts 229°
2026-05-07 14:51 22.34806 113.82610 2957 ft 189 kts 221°
2026-05-07 14:51 22.33862 113.81732 2958 ft 169 kts 220°
2026-05-07 14:52 22.32972 113.80917 2972 ft 167 kts 220°
2026-05-07 14:52 22.32091 113.80105 2963 ft 167 kts 220°
2026-05-07 14:52 22.31114 113.79422 2565 ft 169 kts 193°
2026-05-07 14:52 22.29983 113.79531 2157 ft 167 kts 155°
2026-05-07 14:53 22.29112 113.80325 1948 ft 160 kts 134°
2026-05-07 14:53 22.28395 113.81221 1757 ft 159 kts 132°
2026-05-07 14:53 22.27696 113.82144 1551 ft 159 kts 122°
2026-05-07 14:53 22.27476 113.83296 1333 ft 160 kts 79°
2026-05-07 14:54 22.27811 113.84450 1136 ft 158 kts 72°
2026-05-07 14:54 22.28194 113.85562 940 ft 157 kts 71°
2026-05-07 14:54 22.28585 113.86674 732 ft 156 kts 69°
2026-05-07 14:54 22.28978 113.87766 518 ft 155 kts 71°
2026-05-07 14:55 22.29323 113.88878 303 ft 155 kts 72°
2026-05-07 14:55 22.29675 113.89960 94 ft 149 kts 72°
2026-05-07 14:55 22.29980 113.90913 44 ft 107 kts 70°
2026-05-07 14:55 22.30155 113.91451 44 ft 58 kts 70°
2026-05-07 14:56 22.30283 113.91844 44 ft 51 kts 68°
2026-05-07 14:56 22.30407 113.92045 42 ft 23 kts 42°
2026-05-07 14:56 22.30526 113.92157 44 ft 23 kts 40°
2026-05-07 14:56 22.30600 113.92237 42 ft 0 kts 53°
2026-05-07 14:57 22.30601 113.92239 42 ft 1 kts 60°
2026-05-07 14:57 22.30610 113.92269 44 ft 7 kts 71°
2026-05-07 14:57 22.30629 113.92330 44 ft 11 kts 71°
2026-05-07 14:57 22.30691 113.92362 44 ft 12 kts 357°
2026-05-07 14:58 22.30781 113.92335 44 ft 15 kts 342°
2026-05-07 14:58 22.30881 113.92338 44 ft 15 kts 24°
2026-05-07 14:58 22.30979 113.92399 44 ft 17 kts 27°
2026-05-07 14:58 22.31091 113.92458 44 ft 19 kts 25°
2026-05-07 14:59 22.31204 113.92509 44 ft 15 kts
2026-05-07 14:59 22.31278 113.92448 44 ft 11 kts 328°
2026-05-07 14:59 22.31330 113.92453 44 ft 4 kts 26°
2026-05-07 14:59 22.31355 113.92466 44 ft 2 kts 26°
2026-05-07 15:00 22.31357 113.92467 44 ft 0 kts 26°